FW2617 Weather Reports


time (UTC)temp
C
wind
direction
speed
KPH
gust
KPH
rain 1hr
cm
rain 24hr
cm
rain mn
cm
humidity
%
barometer
mb
20260509060903 20 170 1.6 6.4 0.00 0.00 0.00 90 1008.7
20260509060004 20 170 1.6 6.4 0.00 0.00 0.00 90 1008.4
20260509055404 21 170 1.6 3.2 0.00 0.00 0.00 90 1008.1
20260509054504 21 170 1.6 3.2 0.00 0.00 0.00 90 1008.1
20260509053604 21 170 1.6 6.4 0.00 0.00 0.00 90 1008.1
20260509052725 21 171 3.2 8.0 0.00 0.00 0.00 90 1008.3
20260509051804 21 164 1.6 6.4 0.00 0.00 0.00 90 1008.0
20260509050925 21 166 1.6 6.4 0.00 0.00 0.00 89 1007.9
20260509050025 21 140 0.0 3.2 0.00 0.00 0.00 89 1008.3
20260509045403 21 0 0.0 0.0 0.00 0.00 0.00 88 1008.4
20260509044504 21 0 0.0 0.0 0.00 0.00 0.00 88 1008.5
20260509043625 21 148 0.0 4.8 0.00 0.00 0.00 88 1008.4
20260509042704 21 159 3.2 8.0 0.00 0.00 0.00 88 1008.1
20260509041804 21 167 4.8 9.7 0.00 0.00 0.00 88 1007.6
20260509040925 21 165 4.8 8.0 0.00 0.00 0.00 88 1007.6
20260509040025 22 164 3.2 9.7 0.00 0.00 0.00 88 1007.9
20260509035404 22 163 3.2 8.0 0.00 0.00 0.00 88 1007.8
20260509034525 22 162 1.6 9.7 0.00 0.00 0.00 87 1007.8
20260509033604 22 168 3.2 9.7 0.00 0.00 0.00 87 1007.5
20260509032704 22 169 4.8 11.3 0.00 0.00 0.00 86 1007.4
20260509031803 22 167 4.8 11.3 0.00 0.00 0.00 86 1007.3
20260509030904 22 166 6.4 12.9 0.00 0.00 0.00 86 1007.1
20260509030004 22 168 4.8 12.9 0.00 0.00 0.00 85 1007.1
20260509025404 22 167 4.8 9.7 0.00 0.00 0.00 85 1007.2
20260509024504 22 166 1.6 8.0 0.00 0.00 0.00 85 1007.2
20260509023625 22 173 3.2 9.7 0.00 0.00 0.00 84 1007.0
20260509022704 22 194 1.6 8.0 0.00 0.00 0.00 84 1006.9
20260509021804 22 175 1.6 6.4 0.00 0.00 0.00 84 1006.8
20260509020904 23 166 3.2 8.0 0.00 0.00 0.00 84 1006.8
20260509020004 23 164 3.2 9.7 0.00 0.00 0.00 84 1006.7
20260509015425 23 167 3.2 9.7 0.00 0.00 0.00 83 1006.5
20260509014504 23 163 1.6 8.0 0.00 0.00 0.00 83 1006.5
20260509013603 23 169 3.2 6.4 0.00 0.00 0.00 83 1006.4
20260509012704 23 163 4.8 9.7 0.00 0.00 0.00 83 1006.4
20260509011825 23 165 3.2 11.3 0.00 0.00 0.00 82 1006.3
20260509010904 23 161 1.6 6.4 0.00 0.00 0.00 82 1006.2
20260509010004 23 167 4.8 11.3 0.00 0.00 0.00 82 1006.1
20260509005425 23 163 4.8 11.3 0.00 0.00 0.00 81 1005.9
20260509004504 23 167 3.2 8.0 0.00 0.00 0.00 81 1005.8
20260509003604 23 164 4.8 11.3 0.00 0.00 0.00 80 1006.0
20260509002704 23 183 4.8 11.3 0.00 0.00 0.00 80 1006.1
20260509001803 24 187 3.2 9.7 0.00 0.00 0.00 79 1006.1
20260509000904 24 175 4.8 12.9 0.00 0.00 0.00 78 1006.0
20260509000004 24 165 4.8 12.9 0.00 0.00 0.00 78 1005.9
20260508235424 24 166 4.8 11.3 0.00 0.00 0.00 78 1005.9
20260508234504 24 162 4.8 12.9 0.00 0.00 0.00 78 1005.8
20260508233625 24 163 4.8 12.9 0.00 0.00 0.00 78 1005.7
20260508232704 24 180 8.0 16.1 0.00 0.00 0.00 78 1005.9
20260508231803 24 169 8.0 17.7 0.00 0.00 0.00 77 1005.9
20260508230904 24 182 6.4 17.7 0.00 0.00 0.00 77 1005.9
20260508230004 24 169 4.8 12.9 0.00 0.00 0.00 77 1005.8
20260508225425 24 162 6.4 14.5 0.00 0.00 0.00 78 1006.0
20260508224504 24 166 6.4 14.5 0.00 0.00 0.00 78 1006.1
20260508223625 23 166 6.4 19.3 0.00 0.00 0.00 77 1006.2
20260508222703 23 161 8.0 16.1 0.00 0.00 0.00 77 1006.3
20260508221804 23 168 6.4 14.5 0.00 0.00 0.00 77 1006.3
20260508220904 23 164 3.2 9.7 0.00 0.00 0.00 77 1006.5
20260508220004 23 156 3.2 9.7 0.00 0.00 0.00 77 1006.8
20260508215424 23 145 3.2 9.7 0.00 0.00 0.00 77 1006.9
20260508214503 23 159 4.8 12.9 0.00 0.00 0.00 77 1006.9
20260508213603 23 167 4.8 9.7 0.00 0.00 0.00 76 1007.1
20260508212704 23 174 3.2 11.3 0.00 0.00 0.00 75 1007.2
20260508211804 23 169 4.8 17.7 0.00 0.00 0.00 75 1007.3
20260508210903 23 152 6.4 17.7 0.00 0.00 0.00 75 1007.0
20260508210004 22 149 12.9 22.5 0.00 0.00 0.00 77 1007.0
20260508205404 22 144 11.3 24.1 0.00 0.00 0.00 77 1006.8
20260508204504 22 144 8.0 20.9 0.00 0.00 0.00 77 1007.2
20260508203604 21 150 6.4 19.3 0.00 0.00 0.00 79 1007.4
20260508202724 21 155 4.8 14.5 0.00 0.00 0.00 78 1007.7
20260508201804 21 163 4.8 11.3 0.00 0.00 0.00 78 1008.4
20260508200903 21 172 4.8 11.3 0.00 0.00 0.00 78 1008.7
20260508200004 21 205 4.8 12.9 0.00 0.00 0.00 77 1009.3
20260508195403 21 183 4.8 14.5 0.00 0.00 0.00 77 1009.3
20260508194524 21 192 3.2 12.9 0.00 0.00 0.00 76 1008.9
20260508193603 22 204 4.8 11.3 0.00 0.00 0.00 74 1009.2
20260508192703 22 165 4.8 9.7 0.00 0.00 0.00 74 1008.8
20260508191804 22 159 6.4 14.5 0.00 0.00 0.00 74 1008.9
20260508190903 22 172 8.0 16.1 0.00 0.00 0.00 74 1009.1
20260508190003 22 171 6.4 16.1 0.00 0.00 0.00 74 1009.0
20260508185425 21 177 4.8 16.1 0.00 0.00 0.00 75 1009.2
20260508184504 21 164 4.8 12.9 0.00 0.00 0.00 75 1009.5
20260508183603 21 154 4.8 17.7 0.00 0.00 0.00 74 1009.6
20260508182725 21 160 6.4 14.5 0.00 0.00 0.00 74 1009.8
20260508181804 21 161 6.4 14.5 0.00 0.00 0.00 74 1010.0
20260508180904 21 162 6.4 17.7 0.00 0.00 0.00 74 1010.2
20260508180025 21 163 6.4 20.9 0.00 0.00 0.00 73 1010.3
20260508175403 21 158 4.8 20.9 0.00 0.00 0.00 71 1010.3
20260508174524 22 153 6.4 16.1 0.00 0.00 0.00 70 1010.2
20260508173603 22 131 3.2 11.3 0.00 0.00 0.00 69 1010.1
20260508172704 22 134 3.2 9.7 0.00 0.00 0.00 73 1010.0
20260508171803 21 150 4.8 11.3 0.00 0.00 0.00 71 1010.5
20260508170904 21 147 6.4 16.1 0.00 0.00 0.00 71 1010.6
20260508170004 21 159 6.4 14.5 0.00 0.00 0.00 72 1010.8
20260508165403 21 158 4.8 14.5 0.00 0.00 0.00 71 1010.9
20260508164524 21 153 6.4 16.1 0.00 0.00 0.00 72 1011.0
20260508163603 22 139 4.8 9.7 0.00 0.00 0.00 71 1011.1
20260508162703 22 147 3.2 9.7 0.00 0.00 0.00 71 1011.0
20260508161803 21 103 3.2 9.7 0.00 0.00 0.00 76 1011.1
20260508160924 20 87 1.6 6.4 0.00 0.00 0.00 78 1011.2
20260508160004 19 95 1.6 4.8 0.00 0.00 0.00 78 1011.5
20260508155425 19 92 1.6 4.8 0.00 0.00 0.00 78 1011.6
20260508154503 18 108 1.6 4.8 0.00 0.00 0.00 78 1011.9
20260508153603 18 139 1.6 3.2 0.00 0.00 0.00 79 1012.1
20260508152724 18 136 0.0 3.2 0.00 0.00 0.00 79 1012.2
20260508151803 18 142 0.0 1.6 0.00 0.00 0.00 81 1012.2
20260508150903 18 149 1.6 8.0 0.00 0.00 0.00 81 1012.4
20260508150004 18 153 3.2 6.4 0.00 0.00 0.00 80 1012.4
20260508145424 18 152 1.6 6.4 0.00 0.00 0.00 80 1012.3
20260508144503 18 154 0.0 3.2 0.00 0.00 0.00 82 1012.4
20260508143603 17 118 1.6 6.4 0.00 0.00 0.00 82 1012.3
20260508142703 17 82 1.6 4.8 0.00 0.00 0.00 83 1012.2
20260508141803 17 66 1.6 6.4 0.00 0.00 0.00 84 1012.2
20260508140903 17 103 0.0 3.2 0.00 0.00 0.00 85 1012.1
20260508140003 17 65 1.6 6.4 0.00 0.00 0.00 85 1012.3
20260508135424 17 66 3.2 8.0 0.00 0.00 0.00 86 1012.4
20260508134503 17 57 1.6 8.0 0.00 0.00 0.00 86 1012.5
20260508133603 16 0 0.0 0.0 0.00 0.00 0.00 87 1012.4
20260508132703 16 0 0.0 0.0 0.00 0.00 0.00 87 1012.5
20260508131803 16 144 0.0 4.8 0.00 0.00 0.00 89 1012.4
20260508130903 15 144 0.0 3.2 0.00 0.00 0.00 90 1012.7
20260508130004 15 0 0.0 0.0 0.00 0.00 0.00 90 1012.7
20260508125403 15 0 0.0 0.0 0.00 0.00 0.00 90 1012.8
20260508124503 14 0 0.0 0.0 0.00 0.00 0.00 90 1012.9
20260508123603 14 0 0.0 0.0 0.00 0.00 0.00 90 1012.7
20260508122704 13 0 0.0 0.0 0.00 0.00 0.00 89 1012.5
20260508121803 13 0 0.0 0.0 0.00 0.00 0.00 90 1012.4
20260508120903 13 0 0.0 0.0 0.00 0.00 0.00 90 1012.4
20260508120004 13 0 0.0 0.0 0.00 0.00 0.00 89 1012.3
20260508115403 13 0 0.0 0.0 0.00 0.00 0.00 89 1012.5
20260508114503 13 0 0.0 0.0 0.00 0.00 0.00 89 1012.5
20260508113603 13 0 0.0 0.0 0.00 0.00 0.00 89 1012.7
20260508112703 13 0 0.0 0.0 0.00 0.00 0.00 89 1012.5
20260508111824 13 0 0.0 0.0 0.00 0.00 0.00 89 1012.3
20260508110903 14 0 0.0 0.0 0.00 0.00 0.00 90 1012.4
20260508110003 14 0 0.0 0.0 0.00 0.00 0.00 89 1012.5
20260508105403 14 0 0.0 0.0 0.00 0.00 0.00 89 1012.8
20260508104504 14 144 0.0 3.2 0.00 0.00 0.00 89 1012.6
20260508103603 14 144 0.0 3.2 0.00 0.00 0.00 89 1012.6
20260508102703 14 144 0.0 4.8 0.00 0.00 0.00 88 1012.3
20260508101804 14 0 0.0 0.0 0.00 0.00 0.00 87 1012.5
20260508100903 14 144 0.0 1.6 0.00 0.00 0.00 87 1012.8
20260508100004 15 144 1.6 3.2 0.00 0.00 0.00 87 1012.3
20260508095403 15 144 1.6 3.2 0.00 0.00 0.00 87 1012.3
20260508094503 15 144 0.0 1.6 0.00 0.00 0.00 88 1012.1
20260508093603 15 144 0.0 1.6 0.00 0.00 0.00 88 1012.0
20260508092703 15 152 1.6 6.4 0.00 0.00 0.00 88 1012.1
20260508091803 15 0 0.0 0.0 0.00 0.00 0.00 87 1012.3
20260508090903 15 0 0.0 0.0 0.00 0.00 0.00 87 1012.3
20260508090003 15 0 0.0 0.0 0.00 0.00 0.00 87 1012.3
20260508085403 15 0 0.0 0.0 0.00 0.00 0.00 87 1012.2
20260508084503 15 0 0.0 0.0 0.00 0.00 0.00 87 1012.2
20260508083603 15 0 0.0 0.0 0.00 0.00 0.00 87 1012.4
20260508082703 15 0 0.0 0.0 0.00 0.00 0.00 87 1012.5
20260508081804 15 0 0.0 0.0 0.00 0.00 0.00 86 1012.6
20260508080903 15 0 0.0 0.0 0.00 0.00 0.00 86 1012.8
20260508080004 15 0 0.0 0.0 0.00 0.00 0.00 86 1013.1
20260508075404 15 0 0.0 0.0 0.00 0.00 0.00 86 1013.5
20260508074524 15 0 0.0 0.0 0.00 0.00 0.00 86 1013.6
20260508073624 15 0 0.0 0.0 0.00 0.00 0.00 85 1013.6
20260508072703 15 0 0.0 0.0 0.00 0.00 0.00 84 1013.5
20260508071803 15 0 0.0 0.0 0.00 0.00 0.00 84 1013.3
20260508070903 15 0 0.0 0.0 0.00 0.00 0.00 83 1013.2
20260508070004 15 0 0.0 0.0 0.00 0.00 0.00 83 1012.9
20260508065403 15 0 0.0 0.0 0.00 0.00 0.00 82 1013.1
20260508064524 15 0 0.0 0.0 0.00 0.00 0.00 82 1013.1
20260508063624 15 0 0.0 0.0 0.00 0.00 0.00 82 1013.2
20260508062704 15 0 0.0 0.0 0.00 0.00 0.00 81 1013.5
20260508061803 15 0 0.0 0.0 0.00 0.00 0.00 81 1013.6